Regional Weather Roundup
Issued by NWS

Home | Current Version | Previous Version | Graphics & Text | Print | Product List | Glossary On
Versions: 1 2 3 4 5 6 7 8 9 10 11 12 13 14 15 16 17 18 19 20 21 22 23 24 25 26 27 28 29 30 31 32 33 34 35 36 37 38 39 40 41 42 43 44 45 46 47 48 49 50
080
ASUS43 KDMX 212006
RWRIA

WEATHER ROUNDUP FOR IOWA
NATIONAL WEATHER SERVICE DES MOINES IA
200 PM CST TUE NOV 21 2017

NOTE: "FAIR" INDICATES FEW OR NO CLOUDS BELOW 12,000 FEET WITH NO
SIGNIFICANT WEATHER AND/OR OBSTRUCTIONS TO VISIBILITY.

* - THESE STATIONS ARE NOT NWS STATIONS...THUS NOT UNDER NWS
QUALITY CONTROL.  THEY ALSO DO NOT REPORT WEATHER SUCH
AS PRECIPITATION OR FOG.

IAZ001>003-012>014-020>022-031>034-043>046-212100-
   NORTHWEST IOWA

CITY           SKY/WX    TMP DP  RH WIND       PRES   REMARKS
CARROLL *      SUNNY     32  14  47 NW25G33   30.20S WCI  19
CHEROKEE *     SUNNY     31  12  46 NW18G29   30.25R WCI  19
DENISON *      SUNNY     32  12  43 NW22G28   30.26R WCI  19
LE MARS *      SUNNY     28  10  47 NW18G29   30.28R WCI  16
ORANGE CITY *  SUNNY     30  12  47 NW17G25   30.25R WCI  18
SHELDON *      SUNNY     28   9  43 NW22G32   30.23R WCI  15
SIOUX CITY     SUNNY     29  11  47 NW29G35   30.30R WCI  14
SPENCER        SUNNY     30  10  43 NW28      30.23R WCI  15
STORM LAKE *   SUNNY     30  12  47 NW24G31   30.22R WCI  16
$$

IAZ055>058-069>071-079>083-090>094-212100-
   SOUTHWEST IOWA

CITY           SKY/WX    TMP DP  RH WIND       PRES   REMARKS
ATLANTIC *     SUNNY     32  14  47 NW23G32   30.22R WCI  19
AUDUBON *      SUNNY     34  14  44 NW17G25   30.22R WCI  23
CLARINDA *     SUNNY     36  16  44 N23G30    30.24R WCI  24
COUNCIL BLFS * SUNNY     32  14  47 NW23G30   30.25R WCI  19
CRESTON *      SUNNY     34  16  47 N23G31    30.18R WCI  22
HARLAN  *      SUNNY     32  14  47 NW25      30.27R WCI  19
LAMONI         SUNNY     36  17  46 N21G29    30.15R WCI  25
RED OAK *      SUNNY     36  16  44 NW21G26   30.24R WCI  24
SHENANDOAH *   SUNNY     34  16  47 NW16G25   30.26R WCI  23
$$

IAZ047>049-059>061-072>074-084-212100-
   CENTRAL IOWA

CITY           SKY/WX    TMP DP  RH WIND       PRES   REMARKS
AMES           SUNNY     34  17  50 NW22G31   30.17R WCI  22
ANKENY *       SUNNY     34  16  47 NW22G30   30.18R WCI  22
BOONE *        SUNNY     32  14  47 NW21G31   30.15R WCI  20
CHARITON *     SUNNY     34  16  47 N24G33    30.14R WCI  21
DES MOINES     SUNNY     35  15  44 NW24G35   30.17R WCI  23
GRINNELL*      SUNNY     32  18  54 NW28G36   30.12R WCI  19
KNOXVILLE *    SUNNY     34  14  44 NW28G35   30.12R WCI  20
MARSHALLTOWN   SUNNY     33  17  51 NW26G32   30.12R WCI  20
NEWTON *       SUNNY     34  16  47 NW20G32   30.14R WCI  22
PELLA *        SUNNY     35  17  47 N17G30    30.15R WCI  24
PERRY *          N/A     33  13  43 NW24      30.19R WCI  21
$$

IAZ004>006-015-016-023>025-035-036-212100-
   NORTH CENTRAL IOWA

CITY           SKY/WX    TMP DP  RH WIND       PRES   REMARKS
ALGONA *       SUNNY     28  12  50 NW24G32   30.18R WCI  14
CLARION *      SUNNY     30  16  55 NW28G37   30.16R WCI  16
ESTHERVILLE    SUNNY     27  12  53 NW25G36   30.21R WCI  12
FORT DODGE *   SUNNY     31  16  54 N13G24    30.18R WCI  21
MASON CITY     SUNNY     30  14  51 NW25G38   30.14R WCI  16
FOREST CITY *    N/A     30  16  55 NW20G31   30.15R WCI  18
WEBSTER CITY * FLURRIES  32  14  47 NW26G35   30.14R WCI  18
IOWA FALLS *     N/A     32  17  54 NW25G36   30.14R WCI  19
$$

IAZ007>011-017>019-026>030-037>042-050>054-066-212100-
   NORTHEAST IOWA

CITY           SKY/WX    TMP DP  RH WIND       PRES   REMARKS
CEDAR RAPIDS   SUNNY     33  16  49 NW21      30.06R WCI  21
CHARLES CITY * MOSUNNY   30  14  51 NW22G29   30.10R WCI  17
CLINTON *      MOSUNNY   35  20  54 NW23G29   30.00R WCI  23
DECORAH *      SUNNY     30  14  51 N21G26    30.04R WCI  17
DUBUQUE        MOSUNNY   33  18  53 NW21G32   30.00R WCI  21
MONTICELLO *   SUNNY     34  16  47 NW24G32   30.02R WCI  21
OELWEIN *      MOSUNNY   30  18  59 NW31G37   30.07R WCI  15
WATERLOO       SUNNY     31  15  52 NW29G36   30.10R WCI  16
$$

IAZ064-065-067-068-078-212100-
   EAST CENTRAL IOWA

CITY           SKY/WX    TMP DP  RH WIND       PRES   REMARKS
DAVENPORT      SUNNY     34  20  56 NW21G31   30.04R WCI  22
IOWA CITY      SUNNY     35  17  47 NW23G30   30.09R WCI  23
MT. PLEASANT * SUNNY     36  18  48 NW14G25   30.07R WCI  27
MUSCATINE *    SUNNY     36  18  48 NW21G29   30.07R WCI  24
QUAD CITIES    SUNNY     36  19  50 NW25G32   30.01R WCI  24
$$

IAZ062-063-075>077-085>089-095>099-212100-
   SOUTHEAST IOWA

CITY           SKY/WX    TMP DP  RH WIND       PRES   REMARKS
BURLINGTON     MOSUNNY   38  22  52 NW16G26   30.05R WCI  29
FAIRFIELD *    SUNNY     36  18  48 NW23G31   30.08R WCI  24
FORT MADISON * MOSUNNY   39  21  48 NW17G24   30.06R WCI  30
KEOKUK *       CLOUDY    37  21  52 NW21G29   30.06R WCI  27
OSKALOOSA *      N/A     34  18  53 NW24G31   30.12R WCI  21
OTTUMWA        SUNNY     35  18  49 NW25G32   30.12R WCI  23
WASHINGTON *   SUNNY     34  19  55 NW22G32   30.09R WCI  22
$$

ABBREVIATIONS USED IN REMARKS
   TC - TEMPERATURES IN CELSIUS
  WCI - WIND CHILL INDEX
   HX - HEAT INDEX
  VSB - VISIBILITY
$$





USA.gov is the U.S. government's official web portal to all federal, state and local government web resources and services.